Weather Roundup
Issued by NWS Chicago, IL

Home | Current Version | Previous Version | Text Only | Print | Product List | Glossary Off
Versions: 1 2 3 4 5 6 7 8 9 10 11 12 13 14 15 16 17 18 19 20 21 22 23 24 25 26 27 28 29 30 31 32 33 34 35 36 37 38 39 40 41 42 43 44 45 46 47 48 49 50

000
NZUS59 KLOT 262303
HRRLOT

CHICAGO AREA WEATHER ROUNDUP
NATIONAL WEATHER SERVICE CHICAGO/ROMEOVILLE IL
600 PM CDT THU APR 26 2018

NOTE: "FAIR" INDICATES FEW OR NO CLOUDS BELOW 12,000 FEET WITH NO
SIGNIFICANT WEATHER AND/OR OBSTRUCTIONS TO VISIBILITY.

* THESE STATIONS ARE NOT UNDER NWS QUALITY CONTROL. THEY ALSO MAY NOT
  REPORT WEATHER SUCH AS PRECIPITATION OR FOG.

ILZ005-006-012>014-019>023-270000-
NORTHEAST ILLINOIS

CITY           SKY/WX    TMP DP  RH WIND       PRES   REMARKS
OHARE          CLOUDY    65  27  23 SW9       29.83F
MIDWAY         CLOUDY    62  26  25 E9        29.84F
AURORA           N/A     66  30  26 MISG      29.84F
LANSING*         N/A     62  35  36 E6        29.85F
JOLIET*          N/A     67  31  26 CALM      29.85F
WAUKEGAN         N/A     54  27  35 SE8       29.84F
DUPAGE AIRPORT   N/A     65  31  28 SW8       29.83F
WHEELING         N/A     66  29  24 SW6       29.85F
KANKAKEE*        N/A     64  31  28 NW10      29.87S
MORRIS*          N/A     66  29  25 W7        29.84S
LEWIS AIRPORT*   N/A     65  32  29 W8        29.85F
NORTHERLY ISL    N/A     49  34  56 SE3         N/A
$$

WIZ051-052-058>065-066-070>072-270000-
SOUTHEAST WISCONSIN

CITY           SKY/WX    TMP DP  RH WIND       PRES   REMARKS
MILWAUKEE      PTSUNNY   61  32  33 S12       29.83F
KENOSHA*         N/A     59  29  31 S10       29.84S
RACINE*          N/A     54  26  34 S13       29.85F
BURLINGTON       N/A     66  30  26 SW12      29.82F
WAUKESHA       SUNNY     63  28  27 SW9       29.83F
WEST BEND        N/A     64  27  24 W12       29.80S
$$

INZ001>003-010>013-019-020-270000-
NORTHWEST INDIANA

CITY           SKY/WX    TMP DP  RH WIND       PRES   REMARKS
GARY*          PTSUNNY   63  21  20 E6        29.86F
MICHIGAN CITY* NOT AVBL
RENSSELAER*    NOT AVBL
VALPARAISO       N/A     62  21  20 N5        29.87F
$$

LMZ740>746-270000-
SOUTHERN LAKE MICHIGAN

STATION/POSITION TIME  SKY/WX   TEMP WIND        PRES    VSBY
                                AIR  DIR/SP/G
                 (UTC)          (F)  (DEG/KT/KT) (MB)    (MI)
HARRISON CRIB    2240            48  140/ 11/ 12   N/A
BURNHAM HARBOR   2300            49  140/  3/  5   N/A
CALUMET HARBOR   2230            50  100/  6/ 11 1010.8F
BURNS HARBOR     2240            52   70/  8/  9 1011.9F
MICHIGAN CITY    2240            53   50/  8/  8   N/A
$$

ABBREVIATIONS USED IN REMARKS
   TC - TEMPERATURE IN CELSIUS
  WCI - WIND CHILL INDEX
   HX - HEAT INDEX
  VSB - VISIBILITY
$$




USA.gov is the U.S. government's official web portal to all federal, state and local government web resources and services.